When you browse on this site, cookies collect data to enhance your experience and personalize the content and advertising you see.
Visit our Privacy Policy to learn more. By continuing to use the site, you agree to this use of cookies and data.

Tiempo cada hora La Calera

Hoy, 23 Septiembre, Miércoles

Tiempo Temperatura Precipitaciones Viento Presión Humedad
00:00 +14°C° 0 mm 1 mps 744 mmHg 78%
01:00 +14°C° 0 mm 1 mps 744 mmHg 79%
02:00 +14°C° 0 mm 1 mps 744 mmHg 78%
03:00 +14°C° 0 mm 1 mps 743 mmHg 77%
04:00 +14°C° 0 mm 1 mps 743 mmHg 76%
05:00 +16°C° 0 mm 1 mps 743 mmHg 69%
06:00 +19°C° 0 mm 1 mps 744 mmHg 63%
07:00 +22°C° 0 mm 1 mps 744 mmHg 56%
08:00 +24°C° 0 mm 1 mps 744 mmHg 50%
09:00 +26°C° 0 mm 1 mps 744 mmHg 44%
10:00 +27°C° 0 mm 2 mps 744 mmHg 39%
11:00 +28°C° 0 mm 2 mps 744 mmHg 37%
12:00 +29°C° 0 mm 3 mps 744 mmHg 35%
13:00 +29°C° 0 mm 3 mps 743 mmHg 34%
14:00 +28°C° 0 mm 3 mps 743 mmHg 37%
15:00 +27°C° 0 mm 3 mps 743 mmHg 40%
16:00 +26°C° 0 mm 2 mps 743 mmHg 42%
17:00 +23°C° 0 mm 2 mps 743 mmHg 55%
18:00 +20°C° 0 mm 1 mps 744 mmHg 67%
19:00 +14°C° 0 mm 0 mps 744 mmHg 79%
20:00 +14°C° 0 mm 0 mps 744 mmHg 79%
21:00 +13°C° 0 mm 0 mps 744 mmHg 80%
22:00 +13°C° 0 mm 0 mps 744 mmHg 80%
23:00 +13°C° 0 mm 0 mps 743 mmHg 80%

Mañana, 24 Septiembre, Jueves

Tiempo Temperatura Precipitaciones Viento Presión Humedad
00:00 +12°C° 0 mm 0 mps 743 mmHg 81%
01:00 +12°C° 0 mm 0 mps 743 mmHg 81%
02:00 +11°C° 0 mm 0 mps 743 mmHg 81%
03:00 +11°C° 0 mm 0 mps 743 mmHg 82%
04:00 +11°C° 0 mm 0 mps 743 mmHg 82%
05:00 +13°C° 0 mm 0 mps 743 mmHg 75%
06:00 +15°C° 0 mm 0 mps 743 mmHg 68%
07:00 +17°C° 0 mm 0 mps 744 mmHg 60%
08:00 +21°C° 0 mm 1 mps 744 mmHg 55%
09:00 +21°C° 0 mm 2 mps 744 mmHg 50%
10:00 +24°C° 0 mm 2 mps 744 mmHg 45%
11:00 +24°C° 0 mm 3 mps 744 mmHg 45%
12:00 +24°C° 0 mm 3 mps 744 mmHg 45%
13:00 +24°C° 0 mm 3 mps 744 mmHg 46%
14:00 +22°C° 0 mm 3 mps 744 mmHg 51%
15:00 +20°C° 0 mm 3 mps 744 mmHg 56%
16:00 +19°C° 0 mm 2 mps 744 mmHg 62%
17:00 +16°C° 0 mm 2 mps 744 mmHg 73%
18:00 +13°C° 0 mm 1 mps 745 mmHg 83%
19:00 +9°C° 0 mm 0 mps 745 mmHg 94%
20:00 +8°C° 0 mm 0 mps 745 mmHg 95%
21:00 +8°C° 0 mm 0 mps 745 mmHg 95%
22:00 +7°C° 0 mm 0 mps 745 mmHg 96%
23:00 +8°C° 0 mm 0 mps 745 mmHg 96%

Pasado mañana, 25 Septiembre, Viernes

Tiempo Temperatura Precipitaciones Viento Presión Humedad
00:00 +9°C° 0 mm 1 mps 745 mmHg 96%
01:00 +9°C° 0 mm 1 mps 745 mmHg 96%
02:00 +9°C° 0 mm 1 mps 745 mmHg 95%
03:00 +9°C° 0 mm 1 mps 745 mmHg 94%
04:00 +10°C° 0 mm 1 mps 745 mmHg 93%
05:00 +10°C° 0 mm 1 mps 746 mmHg 90%
06:00 +9°C° 0 mm 0 mps 746 mmHg 88%
07:00 +10°C° 0 mm 0 mps 746 mmHg 85%
08:00 +13°C° 0 mm 1 mps 747 mmHg 75%
09:00 +14°C° 0 mm 1 mps 747 mmHg 65%
10:00 +16°C° 0 mm 2 mps 747 mmHg 56%
11:00 +17°C° 0 mm 3 mps 747 mmHg 53%
12:00 +18°C° 0 mm 3 mps 747 mmHg 50%
13:00 +19°C° 0 mm 4 mps 747 mmHg 47%
14:00 +18°C° 0 mm 4 mps 747 mmHg 51%
15:00 +17°C° 0 mm 3 mps 747 mmHg 56%
16:00 +16°C° 0 mm 3 mps 747 mmHg 60%
17:00 +14°C° 0 mm 2 mps 747 mmHg 70%
18:00 +10°C° 0 mm 2 mps 747 mmHg 81%
19:00 +8°C° 0 mm 1 mps 747 mmHg 91%
20:00 +8°C° 0 mm 1 mps 747 mmHg 91%
21:00 +8°C° 0 mm 1 mps 747 mmHg 90%
22:00 +8°C° 0 mm 1 mps 747 mmHg 90%
23:00 +8°C° 0 mm 1 mps 747 mmHg 90%

26 Septiembre, Sábado

Tiempo Temperatura Precipitaciones Viento Presión Humedad
00:00 +8°C° 0 mm 1 mps 746 mmHg 89%
01:00 +7°C° 0 mm 1 mps 746 mmHg 89%
02:00 +7°C° 0 mm 1 mps 746 mmHg 89%
03:00 +7°C° 0 mm 1 mps 745 mmHg 89%
04:00 +7°C° 0 mm 1 mps 745 mmHg 89%
05:00 +9°C° 0 mm 1 mps 745 mmHg 82%
06:00 +12°C° 0 mm 1 mps 745 mmHg 75%
07:00 +14°C° 0 mm 1 mps 746 mmHg 68%
08:00 +16°C° 0 mm 2 mps 746 mmHg 58%
09:00 +19°C° 0 mm 2 mps 745 mmHg 49%
10:00 +21°C° 0 mm 2 mps 745 mmHg 40%
11:00 +22°C° 0 mm 3 mps 745 mmHg 39%
12:00 +24°C° 0 mm 3 mps 745 mmHg 37%
13:00 +23°C° 0 mm 4 mps 745 mmHg 36%
14:00 +22°C° 0 mm 3 mps 745 mmHg 40%
15:00 +22°C° 0 mm 3 mps 745 mmHg 44%
16:00 +21°C° 0 mm 3 mps 745 mmHg 48%
17:00 +17°C° 0 mm 2 mps 745 mmHg 61%
18:00 +14°C° 0 mm 2 mps 745 mmHg 74%
19:00 +10°C° 0 mm 1 mps 745 mmHg 88%
20:00 +10°C° 0 mm 1 mps 745 mmHg 88%
21:00 +9°C° 0 mm 0 mps 745 mmHg 88%
22:00 +8°C° 0 mm 0 mps 745 mmHg 88%
23:00 +8°C° 0 mm 0 mps 745 mmHg 87%

27 Septiembre, Domingo

Tiempo Temperatura Precipitaciones Viento Presión Humedad
00:00 +8°C° 0 mm 0 mps 744 mmHg 86%
01:00 +8°C° 0 mm 0 mps 744 mmHg 85%
02:00 +8°C° 0 mm 0 mps 744 mmHg 84%
03:00 +9°C° 0 mm 1 mps 743 mmHg 83%
04:00 +8°C° 0 mm 1 mps 743 mmHg 82%
05:00 +11°C° 0 mm 1 mps 743 mmHg 73%
06:00 +14°C° 0 mm 1 mps 744 mmHg 64%
07:00 +16°C° 0 mm 1 mps 744 mmHg 55%
08:00 +19°C° 0 mm 1 mps 744 mmHg 49%
09:00 +21°C° 0 mm 2 mps 743 mmHg 43%
10:00 +24°C° 0 mm 2 mps 743 mmHg 37%
11:00 +25°C° 0 mm 2 mps 743 mmHg 36%
12:00 +25°C° 0 mm 3 mps 743 mmHg 36%
13:00 +26°C° 0 mm 3 mps 743 mmHg 36%
14:00 +25°C° 0 mm 3 mps 742 mmHg 41%
15:00 +24°C° 0 mm 3 mps 742 mmHg 46%
16:00 +22°C° 0 mm 3 mps 742 mmHg 51%
17:00 +18°C° 0 mm 2 mps 742 mmHg 63%
18:00 +15°C° 0 mm 1 mps 742 mmHg 75%
19:00 +12°C° 0 mm 1 mps 742 mmHg 88%
20:00 +12°C° 0 mm 1 mps 742 mmHg 88%
21:00 +12°C° 0 mm 1 mps 742 mmHg 89%
22:00 +11°C° 0 mm 1 mps 742 mmHg 90%
23:00 +10°C° 0 mm 0 mps 741 mmHg 90%

28 Septiembre, Lunes

Tiempo Temperatura Precipitaciones Viento Presión Humedad
00:00 +9°C° 0 mm 0 mps 741 mmHg 91%
01:00 +8°C° 0 mm 0 mps 741 mmHg 92%
02:00 +8°C° 0 mm 0 mps 741 mmHg 92%
03:00 +8°C° 0 mm 0 mps 741 mmHg 93%
04:00 +7°C° 0 mm 0 mps 741 mmHg 93%
05:00 +9°C° 0 mm 0 mps 741 mmHg 89%
06:00 +11°C° 0 mm 0 mps 741 mmHg 85%
07:00 +13°C° 0 mm 0 mps 741 mmHg 80%
08:00 +16°C° 0 mm 1 mps 742 mmHg 71%
09:00 +18°C° 0 mm 2 mps 742 mmHg 62%
10:00 +19°C° 0 mm 3 mps 742 mmHg 53%
11:00 +20°C° 0 mm 3 mps 742 mmHg 51%
12:00 +20°C° 0 mm 3 mps 742 mmHg 50%
13:00 +20°C° 0 mm 4 mps 742 mmHg 49%
14:00 +19°C° 0 mm 3 mps 741 mmHg 55%
15:00 +17°C° 0 mm 3 mps 741 mmHg 60%
16:00 +16°C° 0 mm 3 mps 741 mmHg 65%
17:00 +14°C° 0 mm 2 mps 741 mmHg 75%
18:00 +11°C° 0 mm 1 mps 742 mmHg 85%
19:00 +9°C° 0 mm 1 mps 742 mmHg 95%
20:00 +9°C° 0 mm 1 mps 742 mmHg 95%
21:00 +9°C° 0 mm 1 mps 742 mmHg 95%
22:00 +9°C° 0 mm 1 mps 742 mmHg 95%
23:00 +9°C° 0 mm 1 mps 742 mmHg 93%
Mostrar más